Location: Newark
(42.7133°N, 87.7910°W)
Time: 02:29:21
(UTC+00:00)

Tiros 1 - Pass Details

Date: 28 September 2019
Orbit: 630 x 664 km, 48.4° (Epoch: 19 October)

Event Time Altitude Azimuth Distance (km) Brightness Sun altitude
Rises 19:03:31 0° 287° (WNW) 2,976 10.7 41.5°
Reaches altitude 10° 19:05:58 10° 295° (WNW) 2,059 9.9 41.3°
Maximum altitude 19:10:30 43° 7° (N) 910 8.0 40.9°
Drops below altitude 10° 19:14:59 10° 79° (E) 2,035 9.5 40.5°
Sets 19:17:24 0° 86° (E) 2,938 10.3 40.2°
